Location: Kermapucano
(48.0667°N, 3.3000°W)
Time: 20:03:32
(UTC+00:00)

RESURS DK-1 - Pass Details

Date: 29 November 2020
Orbit: 557 x 560 km, 69.9° (Epoch: 27 January)

Event Time Altitude Azimuth Distance (km) Brightness Sun altitude
Exits shadow 06:03:06 - 219° (SW) 2,501 5.4 -15.6°
Reaches altitude 10° 06:04:45 10° 223° (SW) 1,847 4.7 -15.4°
Maximum altitude 06:08:49 57° 303° (WNW) 665 2.4 -14.7°
Drops below altitude 10° 06:12:55 10° 22° (NNE) 1,861 5.1 -14.0°
Sets 06:15:10 0° 27° (NNE) 2,761 6.0 -13.7°
